Soldotna, AK

10:19 AM AKDT on April 28, 2017 (GMT -0800)
Soldotna

Weather History for PASX - November, 2012

Change the Weather History Date:

Tuesday, November 6, 2012

  Actual Average Record
Temperature  
Mean Temperature 12 °F -  
Max Temperature 24 °F 33 °F 48 °F (2002)
Min Temperature 0 °F 18 °F -11 °F (1956)
Degree Days  
Heating Degree Days 53    
Moisture  
Dew Point 12 °F    
Average Humidity 81    
Maximum Humidity 100    
Minimum Humidity 59    
Precipitation  
Precipitation 0.00 in - - ()
Sea Level Pressure  
Sea Level Pressure 29.97 in    
Wind  
Wind Speed 7 mph (East)    
Max Wind Speed 12 mph    
Max Gust Speed 16 mph    
Visibility 9 miles    
Events      
Averages and records for this station are not official NWS values.
T = Trace of Precipitation, MM = Missing Value Source: NWS Daily Summary

Daily Weather History Graph

Daily Weather History Graph

Search for Another Location

Airport or City:

Trip Planner

Search our weather history database for the weather conditions in past years. The results will help you decide how hot, cold, wet, or windy it might be!

Date:

Astronomy

Nov. 06, 2012 Rise Set
Actual Time 8:43 AM AKST 4:51 PM AKST
Civil Twilight 7:56 AM AKST 5:38 PM AKST
Nautical Twilight 7:04 AM AKST 6:29 PM AKST
Astronomical Twilight 6:15 AM AKST 7:18 PM AKST
Moon No Moon Rise 2:23 PM AKST (11/6)
Length of Visible Light 9h 42m
Length of Day
8h 07m
Waning Gibbous, 51% of the Moon is Illuminated
Nov 6
Waning Gibbous
Nov 6
Last Quarter
Nov 13
New
Nov 20
First Quarter
Nov 28
Full

Hourly Weather History & Observations

Time (AKST) Temp. Windchill Dew Point Humidity Pressure Visibility Wind Dir Wind Speed Gust Speed Precip Events Conditions
12:16 AM 21.2 °F 10.9 °F 17.6 °F 86% 29.76 in 1.5 mi ENE 9.2 mph - N/A   Overcast
12:36 AM 21.2 °F 9.5 °F 17.6 °F 86% 29.77 in 2.5 mi NE 11.5 mph - N/A   Overcast
12:56 AM 21.2 °F 10.9 °F 17.6 °F 86% 29.78 in 2.0 mi ENE 9.2 mph - N/A   Overcast
1:16 AM 21.2 °F 10.9 °F 17.6 °F 86% 29.79 in 4.0 mi ENE 9.2 mph - N/A   Overcast
1:36 AM 21.2 °F 10.1 °F 15.8 °F 80% 29.79 in 5.0 mi ENE 10.4 mph 16.1 mph N/A   Mostly Cloudy
1:56 AM 19.4 °F 8.6 °F 15.8 °F 86% 29.80 in 6.0 mi ENE 9.2 mph - N/A   Overcast
2:16 AM 19.4 °F 7.9 °F 15.8 °F 86% 29.80 in 9.0 mi ENE 10.4 mph - N/A   Mostly Cloudy
2:36 AM 21.2 °F 10.1 °F 15.8 °F 80% 29.81 in 10.0 mi ENE 10.4 mph - N/A   Overcast
2:56 AM 21.2 °F 10.9 °F 15.8 °F 80% 29.82 in 10.0 mi ENE 9.2 mph - N/A   Overcast
3:16 AM 19.4 °F 9.5 °F 15.8 °F 86% 29.82 in 10.0 mi ENE 8.1 mph - N/A   Overcast
3:36 AM 19.4 °F 7.9 °F 15.8 °F 86% 29.82 in 10.0 mi ENE 10.4 mph - N/A   Overcast
3:56 AM 19.4 °F 9.5 °F 15.8 °F 86% 29.83 in 10.0 mi ENE 8.1 mph - N/A   Overcast
4:16 AM 19.4 °F 9.5 °F 15.8 °F 86% 29.84 in 10.0 mi East 8.1 mph - N/A   Overcast
4:36 AM 19.4 °F 10.4 °F 15.8 °F 86% 29.84 in 10.0 mi ENE 6.9 mph - N/A   Overcast
4:56 AM 19.4 °F 9.5 °F 15.8 °F 86% 29.85 in 10.0 mi East 8.1 mph - N/A   Overcast
5:16 AM 19.4 °F 11.5 °F 15.8 °F 86% 29.85 in 10.0 mi East 5.8 mph - N/A   Overcast
5:36 AM 19.4 °F 11.5 °F 15.8 °F 86% 29.86 in 10.0 mi East 5.8 mph - N/A   Overcast
5:56 AM 19.4 °F 10.4 °F 15.8 °F 86% 29.86 in 10.0 mi East 6.9 mph - N/A   Overcast
6:16 AM 19.4 °F 10.4 °F 15.8 °F 86% 29.87 in 10.0 mi East 6.9 mph - N/A   Overcast
6:36 AM 19.4 °F 10.4 °F 15.8 °F 86% 29.88 in 10.0 mi East 6.9 mph - N/A   Overcast
6:56 AM 19.4 °F 10.4 °F 15.8 °F 86% 29.88 in 10.0 mi East 6.9 mph - N/A   Overcast
7:16 AM 19.4 °F 11.5 °F 15.8 °F 86% 29.89 in 10.0 mi East 5.8 mph - N/A   Overcast
7:36 AM 19.4 °F 10.4 °F 15.8 °F 86% 29.89 in 10.0 mi East 6.9 mph - N/A   Overcast
7:56 AM 19.4 °F 11.5 °F 15.8 °F 86% 29.90 in 10.0 mi East 5.8 mph - N/A   Overcast
8:16 AM 19.4 °F 11.5 °F 15.8 °F 86% 29.91 in 10.0 mi East 5.8 mph - N/A   Overcast
8:36 AM 19.4 °F 12.8 °F 15.8 °F 86% 29.91 in 10.0 mi ENE 4.6 mph - N/A   Overcast
8:56 AM 19.4 °F 12.8 °F 14.0 °F 80% 29.92 in 10.0 mi East 4.6 mph - N/A   Overcast
9:16 AM 19.4 °F 11.5 °F 14.0 °F 80% 29.93 in 10.0 mi East 5.8 mph - N/A   Overcast
9:36 AM 19.4 °F 10.4 °F 14.0 °F 80% 29.93 in 10.0 mi East 6.9 mph - N/A   Overcast
9:56 AM 19.4 °F 11.5 °F 12.2 °F 74% 29.94 in 10.0 mi East 5.8 mph - N/A   Overcast
10:16 AM 19.4 °F 11.5 °F 14.0 °F 80% 29.95 in 10.0 mi East 5.8 mph - N/A   Overcast
10:36 AM 19.4 °F 11.5 °F 15.8 °F 86% 29.96 in 10.0 mi ENE 5.8 mph - N/A   Overcast
10:56 AM 21.2 °F 14.9 °F 14.0 °F 74% 29.97 in 10.0 mi East 4.6 mph - N/A   Overcast
11:16 AM 21.2 °F 16.4 °F 14.0 °F 74% 29.98 in 10.0 mi East 3.5 mph - N/A   Overcast
11:36 AM 21.2 °F 14.9 °F 12.2 °F 68% 29.98 in 10.0 mi East 4.6 mph - N/A   Overcast
11:56 AM 21.2 °F 14.9 °F 15.8 °F 80% 29.99 in 10.0 mi East 4.6 mph - N/A   Overcast
12:16 PM 21.2 °F 12.6 °F 14.0 °F 74% 29.99 in 10.0 mi East 6.9 mph - N/A   Overcast
12:36 PM 23.0 °F 17.0 °F 15.8 °F 74% 29.99 in 7.0 mi East 4.6 mph - N/A   Overcast
12:56 PM 23.0 °F 15.8 °F 15.8 °F 74% 29.99 in 10.0 mi East 5.8 mph - N/A   Overcast
1:16 PM 23.0 °F 15.8 °F 15.8 °F 74% 30.00 in 10.0 mi East 5.8 mph - N/A   Overcast
1:36 PM 23.0 °F 15.8 °F 14.0 °F 68% 30.00 in 9.0 mi ESE 5.8 mph - N/A   Mostly Cloudy
1:56 PM 23.0 °F 17.0 °F 12.2 °F 63% 30.01 in 10.0 mi East 4.6 mph - N/A   Clear
2:16 PM 23.0 °F 15.8 °F 14.0 °F 68% 30.01 in 10.0 mi East 5.8 mph - N/A   Clear
2:36 PM 24.8 °F 17.9 °F 14.0 °F 64% 30.01 in 10.0 mi East 5.8 mph - N/A   Clear
2:56 PM 24.8 °F 17.9 °F 14.0 °F 64% 30.01 in 10.0 mi ESE 5.8 mph - N/A   Clear
3:16 PM 24.8 °F 17.9 °F 15.8 °F 69% 30.02 in 10.0 mi East 5.8 mph - N/A   Clear
3:36 PM 24.8 °F 20.5 °F 14.0 °F 64% 30.02 in 10.0 mi ESE 3.5 mph - N/A   Clear
3:56 PM 24.8 °F 19.1 °F 12.2 °F 59% 30.03 in 10.0 mi ESE 4.6 mph - N/A   Clear
4:16 PM 23.0 °F 17.0 °F 12.2 °F 63% 30.04 in 10.0 mi ESE 4.6 mph - N/A   Clear
4:36 PM 19.4 °F - 10.4 °F 68% 30.04 in 10.0 mi Calm Calm - N/A   Clear
4:56 PM 17.6 °F - 12.2 °F 79% 30.04 in - Calm Calm - N/A   Clear
5:16 PM 17.6 °F - 12.2 °F 79% 30.05 in - Calm Calm - N/A   Clear
5:36 PM 14.0 °F - 10.4 °F 86% 30.05 in - Calm Calm - N/A   Unknown
5:56 PM 12.2 °F - 10.4 °F 92% 30.06 in - Calm Calm - N/A   Unknown
6:16 PM 12.2 °F - 8.6 °F 85% 30.07 in 10.0 mi Calm Calm - N/A   Clear
6:36 PM 10.4 °F - 6.8 °F 85% 30.08 in 10.0 mi Calm Calm - N/A   Clear
6:56 PM 8.6 °F - 6.8 °F 92% 30.08 in - Calm Calm - N/A   Unknown
7:16 PM 8.6 °F - 6.8 °F 92% 30.09 in 10.0 mi Calm Calm - N/A   Clear
7:36 PM 8.6 °F - 3.2 °F 79% 30.10 in 10.0 mi Calm Calm - N/A   Clear
7:56 PM 6.8 °F - 3.2 °F 85% 30.11 in 10.0 mi Calm Calm - N/A   Clear
8:16 PM 6.8 °F - 3.2 °F 85% 30.11 in 10.0 mi Calm Calm - N/A   Clear
8:36 PM 3.2 °F - -0.4 °F 85% 30.12 in 10.0 mi Calm Calm - N/A   Clear
8:56 PM 3.2 °F - 1.4 °F 92% 30.12 in 10.0 mi Calm Calm - N/A   Clear
9:16 PM 3.2 °F - -2.2 °F 78% 30.12 in 10.0 mi Calm Calm - N/A   Clear
9:36 PM 3.2 °F - -0.4 °F 85% 30.13 in 10.0 mi Calm Calm - N/A   Clear
9:56 PM 1.4 °F - -0.4 °F 92% 30.14 in 10.0 mi Calm Calm - N/A   Clear
10:16 PM 1.4 °F - -2.2 °F 85% 30.15 in - Calm Calm - N/A   Unknown
10:36 PM -0.4 °F -8.3 °F -2.2 °F 92% 30.15 in 10.0 mi East 3.5 mph - N/A   Clear
10:56 PM -0.4 °F - -2.2 °F 92% 30.16 in 10.0 mi Calm Calm - N/A   Clear
11:16 PM -0.4 °F -8.3 °F -5.8 °F 78% 30.16 in 10.0 mi ENE 3.5 mph - N/A   Clear
11:56 PM -0.4 °F -8.3 °F -0.4 °F 100% 30.17 in 10.0 mi ENE 3.5 mph - N/A   Clear